[[{"header":{"parameterUnit":"m.s-1","parameterCategory":1,"la1":30.2991,"la2":30.254,"lo1":-89.0895,"lo2":-89.0444,"dy":0.0017,"dx":0.0017,"nx":28,"ny":28,"refTime":"2024-07-19T09:00:00:Z","depth":0,"parameterNumber":2,"parameterNumberName":"U-component_of_WINDS"},"data":[0,0,0,0,0,0,0,0,0,0,0,0,0,0,0,0,0,0,0,0,0,0,0,0,0,0,0,0,0,0,0,0,0,0,0,0,0,0,0,0,0,0,0,0,0,0,0,0,0,0,0,0,0,0,0,0,0,0,1.5783,1.5783,0,1.5789,1.5789,1.5789,1.5745,1.5744,1.5742,1.5741,1.5751,1.5752,1.5754,0,0,0,0,0,0,0,0,0,0,0,0,0,1.5736,1.5737,1.5783,1.5783,1.5783,1.5789,1.5789,1.5789,1.5745,1.5744,1.5742,1.5741,1.5751,1.5752,1.5754,0,0,0,0,0,0,0,0,0,0,0,0,0,1.5751,1.5737,1.5783,1.5762,1.576,1.5789,1.5789,1.5789,1.5746,1.5744,1.5742,1.574,1.575,1.5752,1.5754,1.5805,0,0,1.5761,1.5762,0,0,0,0,0,0,0,0,1.575,1.5752,1.5765,1.5763,1.5761,1.5764,1.5776,1.5795,1.5746,1.5751,1.5741,1.5739,1.5757,1.5759,1.5764,1.5806,1.5806,1.5761,1.5762,1.5763,1.5764,0,0,0,0,0,0,0,1.5749,1.5752,1.5786,1.5765,1.5763,1.5753,1.5753,1.578,1.5765,1.575,1.5747,1.5748,1.5756,1.5762,1.5764,1.5806,1.5761,1.5763,1.5764,1.5765,1.5891,1.5893,0,0,0,0,0,0,1.575,1.5751,1.5785,1.5786,1.5751,1.5755,1.5755,1.5765,1.5764,1.5762,1.575,1.5746,1.5759,1.5761,1.5764,1.5824,1.5763,1.5765,1.5766,1.5889,1.5892,1.5894,0,0,0,0,0,0,1.5749,1.5754,1.5785,1.5768,1.5771,1.5758,1.577,1.5766,1.5772,1.5764,1.5761,1.5759,1.5758,1.5761,1.5795,1.5824,1.5766,1.5768,1.5887,1.589,1.5893,1.5944,0,0,0,0,0,0,1.5748,1.5754,1.5772,1.5768,1.5772,1.5815,1.5771,1.5768,1.5776,1.5771,1.5772,1.577,1.5757,1.5792,1.5797,1.5826,1.577,1.5884,1.5888,1.5892,1.594,1.5949,1.5956,0,0,0,0,0,1.5747,1.5787,1.5773,1.5778,1.5795,1.5817,1.5819,1.5802,1.5778,1.5797,1.5792,1.577,1.582,1.5796,1.5802,1.5831,1.5882,1.5887,1.5891,1.5936,1.5947,1.5956,0,0,0,0,0,0,1.5795,1.5786,1.5771,1.5811,1.5815,1.5809,1.5832,1.5814,1.5826,1.5821,1.58,1.5801,1.5839,1.5838,1.5812,1.5881,1.5847,1.5853,1.5879,1.589,1.5898,1.5897,1.5772,0,0,0,0,0,1.581,1.5828,1.582,1.5856,1.5859,1.5845,1.5855,1.5841,1.5845,1.5847,1.5844,1.5849,1.5866,1.5878,1.5893,1.594,1.594,1.5963,1.5971,1.5978,1.5983,1.6009,1.6019,1.5909,1.5909,1.5909,0,0,1.5842,1.5839,1.5852,1.5866,1.5867,1.5887,1.5847,1.587,1.5885,1.5851,1.5882,1.5881,1.5886,1.5927,1.5944,1.5927,1.6014,1.5984,1.5989,1.5991,1.6015,1.6025,1.6035,1.5912,1.5912,1.5911,0,0,1.591,1.591,1.594,1.5942,1.5945,1.5936,1.5943,1.5941,1.5938,1.5969,1.5944,1.5963,1.5992,1.5997,1.6003,1.6074,1.6055,1.608,1.6122,1.6148,1.6156,1.6164,1.619,1.6199,1.6085,1.6085,1.6086,0,1.5949,1.5977,1.5958,1.5982,1.5989,1.5959,1.599,1.5993,1.6001,1.6008,1.5988,1.6025,1.6026,1.6068,1.6085,1.6091,1.61,1.6079,1.6156,1.6164,1.6171,1.6195,1.6205,1.6088,1.6088,1.6088,1.6088,0,1.6026,1.6046,1.607,1.6078,1.6088,1.6115,1.6101,1.6114,1.61,1.6094,1.6127,1.6127,1.6142,1.6151,1.6138,1.6192,1.6181,1.616,1.6125,1.6185,1.6207,1.6216,1.6093,1.6092,1.6091,1.609,0,0,1.6124,1.612,1.613,1.6133,1.6134,1.615,1.6177,1.619,1.6202,1.6209,1.6232,1.6258,1.6238,1.6245,1.6233,1.6255,1.6312,1.6231,1.623,1.6246,1.6372,1.6388,1.6399,1.6299,1.6301,1.6302,1.6371,0,1.619,1.6234,1.6218,1.6264,1.6283,1.6254,1.6278,1.6282,1.6277,1.6293,1.6288,1.6307,1.6279,1.6284,1.6304,1.63,1.6337,1.6295,1.6321,1.6322,1.632,1.641,1.6427,1.6492,1.638,1.6381,1.6382,0,1.6273,1.6283,1.633,1.6328,1.6336,1.6357,1.6369,1.6384,1.6389,1.6384,1.6392,1.6375,1.6403,1.6369,1.6408,1.638,1.639,1.639,1.6392,1.6394,1.6356,1.6415,1.6513,1.6523,1.6396,1.6395,1.6394,0,1.634,1.6365,1.6396,1.64,1.6399,1.6415,1.6415,1.6418,1.6427,1.6438,1.6444,1.6459,1.6467,1.6479,1.6467,1.6444,1.6508,1.6473,1.6506,1.6506,1.652,1.652,1.6622,1.6527,1.6527,1.6527,1.6527,0,1.6416,1.6446,1.6426,1.6446,1.6479,1.6461,1.6495,1.6493,1.6496,1.6515,1.6492,1.6511,1.6495,1.6513,1.6504,1.6538,1.6542,1.654,1.6537,1.6541,1.6542,1.6547,1.6542,1.653,1.6529,1.6529,1.6528,0,1.6496,1.6484,1.6516,1.6512,1.6512,1.6537,1.6535,1.6553,1.6547,1.6572,1.6577,1.6568,1.6588,1.6577,1.6599,1.6593,1.6637,1.6628,1.6635,1.6633,1.6666,1.6663,1.6775,1.6789,1.6686,1.6687,1.6688,0,1.6544,1.6567,1.6565,1.6576,1.6578,1.6596,1.6605,1.6589,1.66,1.6607,1.6625,1.6643,1.6657,1.6691,1.6687,1.6704,1.6696,1.6734,1.6698,1.6702,1.6696,1.6695,1.6698,1.6741,1.6742,1.6743,1.6744,0,1.6632,1.6625,1.6639,1.6651,1.6663,1.6672,1.6679,1.669,1.6674,1.6687,1.6707,1.6718,1.6739,1.6758,1.6773,1.6775,1.6757,1.6755,1.6764,1.6768,1.6771,1.677,1.6654,1.6752,1.6752,1.6751,1.675,1.675,1.6698,1.6717,1.6719,1.6735,1.6739,1.6746,1.6763,1.6759,1.6775,1.679,1.678,1.6804,1.6809,1.6827,1.6832,1.6851,1.6836,1.6848,1.6852,1.6855,1.6859,1.6768,1.6854,1.6854,1.6853,1.6853,1.6853,0,1.6785,1.6785,1.68,1.681,1.6824,1.6805,1.6812,1.6825,1.6845,1.6851,1.6865,1.6888,1.6907,1.6905,1.6922,1.6938,1.6931,1.6943,1.6942,1.6943,1.6872,1.6862,1.6949,1.6949,1.6949,1.6949,1.6949,1.6949,1.6831,1.6862,1.6856,1.6889,1.6889,1.691,1.6916,1.6924,1.6928,1.6955,1.697,1.6968,1.6971,1.6988,1.7005,1.7004,1.7012,1.7028,1.7024,1.6957,1.6948,1.6939,1.693,1.7029,1.7029,1.7093,1.7094,1.7094]},{"header":{"parameterUnit":"m.s-1","parameterCategory":1,"la1":30.2991,"la2":30.254,"lo1":-89.0895,"lo2":-89.0444,"dy":0.0017,"dx":0.0017,"nx":28,"ny":28,"refTime":"2024-07-19T09:00:00:Z","depth":0,"parameterNumber":3,"parameterNumberName":"V-component_of_WINDS"},"data":[0,0,0,0,0,0,0,0,0,0,0,0,0,0,0,0,0,0,0,0,0,0,0,0,0,0,0,0,0,0,0,0,0,0,0,0,0,0,0,0,0,0,0,0,0,0,0,0,0,0,0,0,0,0,0,0,0,0,2.4712,2.4713,0,2.4865,2.4866,2.4868,2.4953,2.4953,2.4953,2.4954,2.5099,2.5103,2.5106,0,0,0,0,0,0,0,0,0,0,0,0,0,2.448,2.4484,2.4712,2.4714,2.4716,2.4864,2.4866,2.4869,2.4953,2.4953,2.4953,2.4954,2.5098,2.5102,2.5106,0,0,0,0,0,0,0,0,0,0,0,0,0,2.4601,2.4485,2.4711,2.4776,2.4783,2.4864,2.4867,2.4869,2.4953,2.4953,2.4954,2.4954,2.5096,2.5102,2.5107,2.5132,0,0,2.5124,2.5126,0,0,0,0,0,0,0,0,2.4594,2.4609,2.4764,2.4771,2.478,2.489,2.4838,2.4957,2.4953,2.4888,2.4954,2.4954,2.5029,2.504,2.5067,2.5139,2.5145,2.5124,2.5127,2.513,2.5131,0,0,0,0,0,0,0,2.4585,2.4603,2.4772,2.4766,2.4776,2.4793,2.481,2.4861,2.4954,2.4894,2.49,2.4918,2.5033,2.5062,2.5071,2.5147,2.5124,2.5129,2.5132,2.5134,2.5244,2.5244,0,0,0,0,0,0,2.4568,2.4596,2.4767,2.4777,2.4686,2.4797,2.4816,2.4854,2.4953,2.4969,2.4917,2.4921,2.5052,2.5065,2.5076,2.5111,2.513,2.5135,2.5138,2.5244,2.5244,2.5244,0,0,0,0,0,0,2.4563,2.4583,2.4761,2.4688,2.4712,2.48,2.4842,2.4857,2.4886,2.4972,2.4987,2.4931,2.5053,2.5069,2.5118,2.5117,2.5137,2.5142,2.5245,2.5244,2.5244,2.5181,0,0,0,0,0,0,2.4556,2.4581,2.4594,2.4688,2.4716,2.4803,2.4842,2.486,2.4897,2.4903,2.4988,2.5002,2.5054,2.5109,2.5123,2.5125,2.5146,2.5245,2.5245,2.5244,2.5184,2.5179,2.5174,0,0,0,0,0,2.4548,2.4569,2.4595,2.4615,2.4735,2.4803,2.4819,2.4882,2.4896,2.4909,2.4963,2.5,2.5115,2.5114,2.513,2.5134,2.5246,2.5245,2.5244,2.5186,2.518,2.5175,0,0,0,0,0,0,2.447,2.4582,2.4612,2.4665,2.4725,2.4818,2.4836,2.4873,2.4927,2.493,2.5002,2.502,2.5062,2.5102,2.5099,2.5161,2.5184,2.5186,2.5134,2.5129,2.5124,2.5113,2.5151,0,0,0,0,0,2.4459,2.4509,2.4603,2.4641,2.4669,2.4747,2.4779,2.4822,2.4885,2.4909,2.4967,2.5023,2.5072,2.5102,2.5152,2.5189,2.5207,2.5199,2.5195,2.519,2.5192,2.5212,2.5209,2.5241,2.5241,2.5241,0,0,2.4437,2.4505,2.4532,2.4627,2.4678,2.4724,2.4767,2.4815,2.4848,2.4915,2.4966,2.501,2.5076,2.5119,2.5141,2.5154,2.5186,2.519,2.5185,2.5189,2.5211,2.5207,2.5204,2.5241,2.5241,2.5241,0,0,2.4421,2.4478,2.4515,2.4566,2.4643,2.4694,2.4703,2.479,2.4823,2.4875,2.4926,2.4964,2.5047,2.5093,2.5126,2.5123,2.5158,2.5137,2.5112,2.5131,2.5128,2.5126,2.5124,2.5122,2.5138,2.5137,2.5137,0,2.4383,2.4459,2.4528,2.4573,2.4612,2.4677,2.4712,2.4756,2.4844,2.4867,2.4881,2.4986,2.5035,2.5089,2.5088,2.5113,2.5122,2.5128,2.5124,2.5123,2.5122,2.512,2.5119,2.5134,2.5135,2.5135,2.5135,0,2.4407,2.4458,2.4478,2.4565,2.4605,2.4645,2.4716,2.4747,2.4786,2.4833,2.4884,2.4945,2.5008,2.5023,2.506,2.508,2.5086,2.5111,2.5135,2.5114,2.5114,2.5114,2.513,2.5131,2.5132,2.5133,0,0,2.4349,2.4473,2.4478,2.4518,2.4607,2.4645,2.4685,2.4749,2.4774,2.4831,2.4864,2.4931,2.4955,2.4992,2.5034,2.5051,2.5042,2.5073,2.5076,2.5064,2.5065,2.5046,2.5044,2.5065,2.5065,2.5065,2.5059,0,2.4345,2.4425,2.4487,2.4542,2.4588,2.4648,2.4682,2.4738,2.4783,2.4824,2.4872,2.4919,2.4947,2.497,2.4989,2.5039,2.5043,2.504,2.5093,2.5094,2.5075,2.5044,2.5025,2.5016,2.5059,2.5059,2.5059,0,2.4352,2.441,2.447,2.4553,2.4574,2.4604,2.4667,2.4707,2.4769,2.48,2.4841,2.4885,2.4925,2.4944,2.4998,2.4995,2.502,2.5047,2.5048,2.5055,2.5076,2.505,2.5015,2.5013,2.506,2.506,2.506,0,2.4302,2.4394,2.4443,2.4474,2.4571,2.459,2.4631,2.4694,2.4727,2.478,2.4802,2.4856,2.4886,2.4925,2.4981,2.499,2.5028,2.5052,2.5052,2.505,2.5058,2.5057,2.5026,2.5074,2.5074,2.5074,2.5074,0,2.4292,2.4325,2.4421,2.4451,2.4489,2.4557,2.4591,2.4636,2.4691,2.4727,2.478,2.4811,2.4883,2.4921,2.4964,2.5001,2.5014,2.5037,2.5048,2.5033,2.5029,2.505,2.5052,2.5073,2.5073,2.5073,2.5074,0,2.4243,2.4309,2.4365,2.4452,2.4474,2.4498,2.4571,2.4599,2.4646,2.469,2.4704,2.4776,2.4824,2.4883,2.4949,2.4977,2.5009,2.5026,2.4989,2.4996,2.4992,2.4991,2.4973,2.4973,2.502,2.502,2.5019,0,2.4232,2.426,2.4351,2.4381,2.442,2.4467,2.4502,2.4568,2.4601,2.4672,2.469,2.4743,2.4789,2.4861,2.4917,2.4966,2.4984,2.4974,2.4992,2.4974,2.4983,2.498,2.4982,2.497,2.4969,2.4968,2.4968,0,2.4206,2.4236,2.4287,2.4348,2.4389,2.4439,2.4491,2.4511,2.4586,2.462,2.4672,2.4707,2.4775,2.4825,2.4881,2.4918,2.4954,2.4962,2.4964,2.4948,2.4926,2.4937,2.4976,2.4962,2.4962,2.4963,2.4963,2.4963,2.4176,2.4202,2.427,2.4324,2.437,2.4417,2.4447,2.4498,2.4544,2.4606,2.4641,2.469,2.4747,2.4827,2.4862,2.4898,2.4912,2.4915,2.4916,2.4916,2.4911,2.492,2.4909,2.4909,2.4909,2.4909,2.491,0,2.4151,2.4197,2.4246,2.4318,2.4359,2.4392,2.4451,2.4481,2.4525,2.4577,2.4622,2.4678,2.4726,2.4785,2.4836,2.4853,2.487,2.4864,2.4863,2.487,2.4897,2.4889,2.4849,2.4849,2.4849,2.4849,2.4849,2.4849,2.4143,2.419,2.4228,2.4296,2.4341,2.4393,2.4423,2.4465,2.4507,2.4569,2.461,2.4649,2.4702,2.4757,2.4801,2.4817,2.4832,2.482,2.484,2.4864,2.4869,2.4874,2.4868,2.4823,2.4823,2.4811,2.4811,2.4811]}]]